Location: Zeiss-Gro�planetarium Berlin
(52.5430°N, 13.4281°E)
Time: 21:43:42
(UTC+01:00)

ISS - Pass Details

Date: 24 September 2020
Orbit: 417 x 420 km, 51.6° (Epoch: 27 October)

Event Time Altitude Azimuth Distance (km) Brightness Sun altitude
Rises 20:12:34 0° 254° (WSW) 2,365 1.2 -11.9°
Reaches altitude 10° 20:14:40 10° 251° (WSW) 1,502 0.0 -12.2°
Maximum altitude 20:18:01 67° 169° (S) 461 -3.7 -12.7°
Enters shadow 20:19:56 23° 91° (E) 940 -2.6 -13.0°
